COSMOS 2251 DEB, 34410

Orbit data source: Space-Track

COSMOS 2251 DEB, 34410 is space debris in LEO originally from a launch on Wed, 16 Jun 1993 UTC launched from the Plesetsk Missile And Space Complex (PKMTR). The debris from Iridium 33, an American commercial communications satellite, has been tracked extensively since its accidental collision with the defunct Russian satellite Cosmos 2251 in 2009. This event, occurring at high speed in low Earth orbit (LEO), generated thousands of pieces of space debris, significantly increasing the risk of further collisions. The Iridium 33 debris cloud has impacted space traffic management and orbital debris mitigation strategies, making it a subject of ongoing study in space situational awareness.

Loading next visibility...
Identifier
34410, 1993-036RB
Orbit
LEO
Country
Flag of CISCIS
Related business
Manufacturer
Unknown
Mission
Spacecraft
Bus & Motor
Unknown
Mass
Unknown
Launch date (UTC)
1993-06-16 (33 years ago)
Launch vehicle
Unknown
Launch site
Plesetsk Missile And Space Complex (PKMTR)
Object type
Payload
Rocket body
Debris
Shape & HBR
Unknown shape, 0.1 m
Radar Cross Section
Small (<0.1 m²)

Expand to show TLE details & history
Last TLE update: 19 hours ago

TLE from 19 hours ago
0 COSMOS 2251 DEB
1 34410U 93036RB  26119.64827546  .00104546  00000-0  25466-2 0  9999
2 34410  73.7270 323.4688 0021869 139.1063 221.1789 15.40201605918814
Epoch: 2026-04-29T15:33Z
TLE epoch observation values (Epoch: 2026-04-29T15:33:30.999Z)
Latitude
-0.00003°
Longitude
-127.51659°
Altitude
459.479 km
Speed
7.631 km/s
True Right ascension
21h 33m 52s
True Declination
0° 00' 00"
Sunlit
Object was in daylight at epoch
Visualization orbit readout
Latitude
Unknown
Longitude
Unknown
Altitude
Unknown
Speed
Unknown
Apparent Right ascension
Unknown
Apparent Declination
Unknown
Sunlit
N/A
Visualization observer readout
Local Sidereal Time
18:28:37
Azimuth
Unknown
Elevation
Unknown
Doppler factor
Unknown
Orbital elements
Apogee altitude
457.969 km
Perigee altitude
428.134 km
Semi-major axis
6,821.189 km
Eccentricity
0.00219
Inclination
73.727°
RAAN
323.4688°
Arg. of periapsis
139.1063°
True anomaly
221.01424°
Mean anomaly
221.1789°
Eccentric anomaly
221.09654°
Mean motion
3.85259 °/min
Orbital period
93.44 mins
BSTAR
0.0025466
Loading maneuver chart data...
Computing Atmospheric mass density...

Documentation

Showing up to 5 results
|